Overview Statistics Trail Chart Weather Telemetry Raw packets
 

This is the latest recevied weather packets stored in our database for station/object VK4CWL-13. If no packets are shown the sender has not sent any weather packets the latest 10 day(s).

<< 4 5 6 7 8 9 10 >>
Time Temp. Humidity Pressure Rain* Wind** Luminosity Snow
1788634817 13.33° C 70% 1019 hPa 0 mm - - -
1788634517 12.78° C 72% 1019 hPa 0 mm - - -
1788634214 12.78° C 73% 1018.9 hPa 0 mm - - -
1788633910 12.78° C 72% 1018.9 hPa 0 mm - - -
1788633608 12.78° C 68% 1018.7 hPa 0 mm - - -
1788633306 12.78° C 68% 1018.8 hPa 0 mm - - -
1788633003 12.78° C 68% 1018.8 hPa 0 mm - - -
1788632701 13.33° C 66% 1018.7 hPa 0 mm - - -
1788632096 13.33° C 66% 1018.7 hPa 0 mm - - -
1788631797 13.33° C 65% 1018.6 hPa 0 mm - - -
1788631492 13.33° C 65% 1018.8 hPa 0 mm - - -
1788631190 13.33° C 64% 1018.5 hPa 0 mm - - -
1788630889 13.33° C 64% 1018.6 hPa 0 mm - - -
1788630585 13.89° C 65% 1018.6 hPa 0 mm - - -
1788630285 13.33° C 66% 1018.3 hPa 0 mm - - -
1788629980 13.33° C 64% 1018.3 hPa 0 mm - - -
1788629678 13.89° C 61% 1018.1 hPa 0 mm - - -
1788629375 13.89° C 63% 1018.1 hPa 0 mm - - -
1788629073 13.89° C 64% 1018.2 hPa 0 mm - - -
1788628771 13.89° C 64% 1018.3 hPa 0 mm - - -
1788628469 13.89° C 62% 1018.1 hPa 0 mm - - -
1788628167 13.89° C 59% 1018 hPa 0 mm - - -
1788627864 13.89° C 59% 1018 hPa 0 mm - - -
1788627562 14.44° C 60% 1018 hPa 0 mm - - -
1788627260 14.44° C 60% 1018.1 hPa 0 mm - - -

* Rain since midnight (hover to see other rain measurements)
** Current wind speed in m/s (hover to see current wind gust speed)